• Processing (Info)

  • MPEC 1995-B04 : 1992 OM

    The following Minor Planet Electronic Circular may be linked-to from your own Web pages, but must not otherwise be redistributed electronically.

    A form allowing access to any MPEC is at the bottom of this page.


    Read MPEC 1995-B03 Read MPEC 1995-C01


    M.P.E.C. 1995-B04                                Issued 1995 Jan. 31, 03:26 UT
    
         The Minor Planet Electronic Circulars contain information on unusual
             minor planets and routine data on comets.  They are published
       on behalf of Commission 20 of the International Astronomical Union by the
              Minor Planet Center, Smithsonian Astrophysical Observatory,
                              Cambridge, MA 02138, U.S.A.
    
              MARSDEN@CFA or WILLIAMS@CFA (.HARVARD.EDU, .SPAN or .BITNET)
    
                                        1992 OM
    
    Recovered by S. M. Larson and C. W. Hergenrother at Kitt Peak at a Delta-T
    of -0.03 day from the prediction on MPC 21977.
    
    Additional observations:
         J92O00M  C1995 01 28.45208 13 03 03.46 -14 23 43.3                      691
         J92O00M  C1995 01 28.45440 13 03 03.53 -14 23 45.2                      691
         J92O00M  C1995 01 28.46032 13 03 03.75 -14 23 48.8                      691
         J92O00M  C1995 01 29.45946 13 03 33.28 -14 32 10.9          20.7 R      691
    
    Observer details:
    691 Steward Observatory, Kitt Peak.  Observers S. M. Larson, C. W.
        Hergenrother.  2.3-m Steward Observatory reflector.
    
    Orbital elements:
    1992 OM
    Epoch 1995 Mar. 24.0 TT = JDT 2449800.5                 Marsden
    M 298.57545              (2000.0)            P               Q
    n   0.30336687     Peri.  346.77725     +0.51165461     +0.85299640
    a   2.1935992      Node   313.88411     -0.77472064     +0.40619580
    e   0.4087106      Incl.    8.21526     -0.37150705     +0.32772262
    P   3.25           H   16.0           G   0.15
    Residuals in seconds of arc
    920727 675  1.2-  1.3+    920826 801  0.5-  0.1+    920924 801  0.2+  0.4+
    920727 675  0.9+  1.6-    920826 801  0.4-  0.1+    920924 801  0.2+  0.1+
    920729 675 (2.8+  1.8+)   920827 900  0.5-  0.7+    920925 675 (1.7+  3.9+)
    920729 675  1.9+  0.8+    920827 900  0.4+  0.8+    920925 675 (0.8+  2.2+)
    920731 675  0.2-  0.0     920827 595  1.0-  0.1-    920929 670  1.1-  2.0-
    920731 675  0.5+  0.4-    920827 595  0.1+  0.4-    920929 670  1.3-  1.7+
    920803 675  1.3-  0.4+    920827 046 (2.9+  0.8-)   920929 670  1.2-  1.1-
    920803 675  0.2+  0.4+    920827 046  1.5+  0.8+    920930 801  0.0   0.3+
    920804 413  0.6-  0.9+    920828 657  0.6-  0.4-    920930 801  0.2+  0.5+
    920806 675  0.6-  1.3-    920828 657  1.0-  0.5-    920930 670  0.8-  2.0+
    920806 675  0.5-  0.9-    920828 657  0.6-  0.2-    920930 670  2.0+  0.9+
    920809 413  0.7+  0.3-    920828 595  1.7+  1.4-    920930 670  1.6+  0.2-
    920809 413  0.6+  0.1-    920828 595  0.3+  0.5+    920930 670 (1.4-  2.2+)
    920820 413  0.1-  0.1+    920828 595  1.5-  0.3-    921006 413  0.1-  0.1-
    920820 413  0.0   0.2+    920901 595 (0.5-  2.7-)   921006 413  0.0   0.1-
    920821 413  0.5-  1.1+    920901 595 (1.3-  3.5-)   921014 413  0.4-  0.3+
    920821 413  0.4-  1.2+    920902 595  1.4-  0.5+    921014 413  0.3-  0.2+
    920822 675  0.2+  0.5-    920902 595 (3.4+  0.5-)   921024 801  0.7+  0.7-
    920822 046  1.4+  0.7-    920905 413  0.1+  0.5-    921024 801  0.3-  0.6-
    920822 046  0.2+  0.6-    920905 413  0.1+  0.5-    921028 801  0.2-  0.0
    920824 801  0.5-  0.2+    920906 413  0.5+  0.4-    921028 801  0.1+  0.1+
    920824 801  0.5-  0.1+    920906 413  0.4+  0.2-    950128 691  0.6-  0.4+
    920825 894  0.2+  0.3-    920918 595  0.9+  1.1-    950128 691  0.5-  0.3-
    920825 894 (0.0   2.3-)   920918 595  1.2+  0.6-    950128 691  0.2+  0.9-
    920825 046 (3.2+  2.9-)   920922 675  1.1+  0.1-    950129 691  0.2-  1.5-
    920825 046  0.6+  0.8+    920922 675  0.3+  0.3-
    
    Ephemeris:
    1992 OM                  a,e,i = 2.19, 0.41, 8                   q = 1.2971
    Date    TT    R. A. (2000) Decl.     Delta      r     Elong.  Phase     V
    1995 01 23    13 00.00   -13 37.0    1.959    2.388   103.4    23.6    20.5
    1995 02 02    13 05.12   -15 01.2    1.793    2.344   111.8    23.0    20.2
    1995 02 12    13 07.88   -16 17.9    1.635    2.300   120.6    21.7    19.9
    1995 02 22    13 07.83   -17 24.6    1.488    2.254   130.0    19.6    19.6
    1995 03 04    13 04.52   -18 17.5    1.355    2.208   139.9    16.8    19.3
    1995 03 14    12 57.71   -18 52.0    1.240    2.160   150.2    13.2    18.9
    1995 03 24    12 47.63   -19 03.2    1.147    2.111   160.0     9.3    18.5
    1995 04 03    12 35.05   -18 47.5    1.078    2.062   166.0     6.8    18.2
    1995 04 13    12 21.50   -18 05.8    1.033    2.012   162.2     8.7    18.2
    1995 04 23    12 08.85   -17 05.1    1.013    1.961   152.5    13.7    18.3
    1995 05 03    11 58.80   -15 56.4    1.014    1.909   141.5    19.2    18.4
    1995 05 13    11 52.60   -14 52.3    1.032    1.857   130.9    24.3    18.5
    1995 05 23    11 50.72   -14 02.5    1.061    1.805   121.1    28.7    18.7
    1995 06 02    11 53.15   -13 32.6    1.098    1.753   112.2    32.4    18.8
    1995 06 12    11 59.63   -13 25.2    1.137    1.702   104.3    35.3    18.9
    1995 06 22    12 09.75   -13 39.9    1.177    1.651    97.4    37.6    19.0
    1995 07 02    12 23.17   -14 14.9    1.216    1.602    91.2    39.4    19.0
    1995 07 12    12 39.60   -15 07.8    1.251    1.554    85.9    40.7    19.0
    1995 07 22    12 58.80   -16 15.3    1.282    1.508    81.1    41.7    19.1
    1995 08 01    13 20.67   -17 33.7    1.309    1.465    77.0    42.5    19.1
    1995 08 11    13 45.14   -18 58.8    1.332    1.425    73.4    43.0    19.1
    1995 08 21    14 12.14   -20 25.8    1.353    1.390    70.3    43.3    19.0
    1995 08 31    14 41.68   -21 49.0    1.372    1.359    67.6    43.4    19.0
    1995 09 10    15 13.64   -23 02.5    1.389    1.334    65.4    43.3    19.0
    1995 09 20    15 47.84   -23 59.7    1.408    1.315    63.5    43.1    19.0
    1995 09 30    16 23.98   -24 34.3    1.430    1.303    61.9    42.7    19.0
    1995 10 10    17 01.59   -24 41.0    1.455    1.297    60.5    42.1    19.0
    1995 10 20    17 40.04   -24 16.1    1.486    1.299    59.3    41.2    19.0
    1995 10 30    18 18.69   -23 18.0    1.524    1.308    58.1    40.2    19.1
    1995 11 09    18 56.86   -21 47.9    1.570    1.324    57.0    38.9    19.1
    1995 11 19    19 34.00   -19 49.0    1.624    1.346    55.8    37.4    19.2
    1995 11 29    20 09.75   -17 26.1    1.687    1.374    54.5    35.8    19.3
    1995 12 09    20 43.89   -14 44.8    1.759    1.407    53.0    34.0    19.4
    1995 12 19    21 16.34   -11 50.8    1.839    1.445    51.3    32.1    19.5
    1995 12 29    21 47.18   -08 49.0    1.927    1.486    49.3    30.1    19.6
    1996 01 08    22 16.51   -05 44.0    2.020    1.531    47.1    28.1    19.7
    1996 01 18    22 44.48   -02 39.4    2.119    1.578    44.6    26.0    19.8
    1996 01 28    23 11.29   +00 22.2    2.222    1.626    41.8    23.8    19.9
    1996 02 07    23 37.08   +03 18.5    2.327    1.677    38.8    21.6    20.0
    1996 02 17    00 02.02   +06 08.0    2.432    1.728    35.6    19.5    20.1
    1996 02 27    00 26.25   +08 49.5    2.537    1.779    32.2    17.3    20.2
    
    Brian G. Marsden                                              M.P.E.C. 1995-B04
    

    Read MPEC 1995-B03 Read MPEC 1995-C01


    MPEC number:

    Enter an MPEC number in one of the following forms:

    • 1997-B01 (the full form)
    • J97B01 (the packed version of the full form)
    • B01 (the abbreviated form)